When you browse on this site, cookies collect data to enhance your experience and personalize the content and advertising you see.
Visit our Privacy Policy to learn more. By continuing to use the site, you agree to this use of cookies and data.
  • în România
  • Lista ţărilor
  • Pe 7 zile
  • Temperatura apei
  • Hartă satelitară
  • Meteo pe hartă
  • Widget-uri
  • user-avatar
    Intrare

    Meteo pe oră la Szombathely

    Astăzi, 18 Ianuarie, Vineri

    Timp Temperatura Precipitaţii Vânt Presiune Umiditate
    00:00 +4°C° 1.1 mm 2 m/s 738 mmHg 89%
    01:00 +4°C° 0 mm 2 m/s 738 mmHg 94%
    02:00 +4°C° 1.5 mm 2 m/s 738 mmHg 93%
    03:00 +4°C° 1.5 mm 2 m/s 738 mmHg 93%
    04:00 +3°C° 1.5 mm 2 m/s 738 mmHg 92%
    05:00 +3°C° 0.6 mm 2 m/s 739 mmHg 89%
    06:00 +2°C° 0.6 mm 3 m/s 739 mmHg 86%
    07:00 +2°C° 0 mm 3 m/s 740 mmHg 82%
    08:00 +2°C° 0.2 mm 3 m/s 741 mmHg 78%
    09:00 +2°C° 0.2 mm 3 m/s 741 mmHg 74%
    10:00 +1°C° 0.2 mm 4 m/s 742 mmHg 70%
    11:00 +1°C° 0 mm 4 m/s 743 mmHg 67%
    12:00 +3°C° 0 mm 4 m/s 743 mmHg 63%
    13:00 +2°C° 0 mm 5 m/s 743 mmHg 60%
    14:00 +3°C° 0 mm 4 m/s 744 mmHg 62%
    15:00 +2°C° 0 mm 3 m/s 744 mmHg 64%
    16:00 +3°C° 0 mm 2 m/s 744 mmHg 66%
    17:00 +2°C° 0 mm 2 m/s 745 mmHg 68%
    18:00 +1°C° 0 mm 2 m/s 745 mmHg 71%
    19:00 -1°C° 0 mm 2 m/s 746 mmHg 74%
    20:00 -1°C° 0 mm 2 m/s 746 mmHg 75%
    21:00 -2°C° 0 mm 2 m/s 746 mmHg 77%
    22:00 -2°C° 0 mm 2 m/s 747 mmHg 78%
    23:00 -2°C° 0 mm 2 m/s 747 mmHg 78%

    Mâine, 19 Ianuarie, Sâmbătă

    Timp Temperatura Precipitaţii Vânt Presiune Umiditate
    00:00 -2°C° 0 mm 2 m/s 747 mmHg 78%
    01:00 -2°C° 0 mm 2 m/s 747 mmHg 78%
    02:00 -3°C° 0 mm 2 m/s 747 mmHg 78%
    03:00 -1°C° 0 mm 1 m/s 747 mmHg 78%
    04:00 -1°C° 0 mm 1 m/s 747 mmHg 77%
    05:00 -1°C° 0 mm 1 m/s 747 mmHg 77%
    06:00 -1°C° 0 mm 1 m/s 747 mmHg 77%
    07:00 -1°C° 0 mm 1 m/s 747 mmHg 77%
    08:00 -1°C° 0 mm 1 m/s 747 mmHg 72%
    09:00 0°C° 0 mm 1 m/s 747 mmHg 67%
    10:00 0°C° 0 mm 1 m/s 747 mmHg 62%
    11:00 +1°C° 0 mm 1 m/s 746 mmHg 60%
    12:00 +2°C° 0 mm 1 m/s 746 mmHg 57%
    13:00 +2°C° 0 mm 1 m/s 745 mmHg 55%
    14:00 +2°C° 0 mm 1 m/s 745 mmHg 58%
    15:00 +2°C° 0 mm 1 m/s 745 mmHg 61%
    16:00 +1°C° 0 mm 1 m/s 745 mmHg 65%
    17:00 +1°C° 0 mm 1 m/s 745 mmHg 67%
    18:00 +1°C° 0 mm 1 m/s 745 mmHg 70%
    19:00 +1°C° 0 mm 1 m/s 745 mmHg 73%
    20:00 +1°C° 0 mm 1 m/s 744 mmHg 76%
    21:00 +1°C° 0 mm 1 m/s 744 mmHg 78%
    22:00 +1°C° 0 mm 1 m/s 744 mmHg 81%
    23:00 +1°C° 0 mm 1 m/s 744 mmHg 82%

    Poimâine, 20 Ianuarie, Duminică

    Timp Temperatura Precipitaţii Vânt Presiune Umiditate
    00:00 0°C° 0 mm 1 m/s 744 mmHg 84%
    01:00 0°C° 0 mm 1 m/s 743 mmHg 86%
    02:00 0°C° 0 mm 1 m/s 743 mmHg 87%
    03:00 0°C° 0 mm 1 m/s 743 mmHg 89%
    04:00 0°C° 0 mm 1 m/s 742 mmHg 90%
    05:00 0°C° 0 mm 1 m/s 742 mmHg 90%
    06:00 0°C° 0 mm 1 m/s 743 mmHg 91%
    07:00 -1°C° 0 mm 0 m/s 743 mmHg 92%
    08:00 -1°C° 0 mm 0 m/s 743 mmHg 89%
    09:00 0°C° 0 mm 0 m/s 743 mmHg 86%
    10:00 0°C° 0 mm 0 m/s 743 mmHg 82%
    11:00 0°C° 0 mm 0 m/s 743 mmHg 79%
    12:00 +1°C° 0 mm 0 m/s 743 mmHg 76%
    13:00 +1°C° 0 mm 0 m/s 742 mmHg 73%
    14:00 +2°C° 0 mm 1 m/s 742 mmHg 74%
    15:00 +2°C° 0 mm 1 m/s 742 mmHg 76%
    16:00 +2°C° 0 mm 1 m/s 743 mmHg 78%
    17:00 +1°C° 0 mm 1 m/s 743 mmHg 80%
    18:00 +1°C° 0 mm 1 m/s 743 mmHg 83%
    19:00 0°C° 0 mm 1 m/s 744 mmHg 85%
    20:00 0°C° 0 mm 1 m/s 744 mmHg 86%
    21:00 -1°C° 0 mm 1 m/s 745 mmHg 87%
    22:00 -1°C° 0 mm 1 m/s 745 mmHg 88%
    23:00 -1°C° 0 mm 1 m/s 745 mmHg 88%

    21 Ianuarie, Luni

    Timp Temperatura Precipitaţii Vânt Presiune Umiditate
    00:00 -1°C° 0 mm 1 m/s 746 mmHg 87%
    01:00 -3°C° 0 mm 2 m/s 746 mmHg 86%
    02:00 -3°C° 0 mm 2 m/s 746 mmHg 84%
    03:00 -3°C° 0 mm 2 m/s 746 mmHg 82%
    04:00 -3°C° 0 mm 2 m/s 746 mmHg 80%
    05:00 -3°C° 0 mm 2 m/s 747 mmHg 79%
    06:00 -3°C° 0 mm 2 m/s 747 mmHg 78%
    07:00 -3°C° 0 mm 2 m/s 748 mmHg 76%
    08:00 -4°C° 0 mm 3 m/s 748 mmHg 70%
    09:00 -2°C° 0 mm 3 m/s 748 mmHg 64%
    10:00 -2°C° 0 mm 4 m/s 749 mmHg 58%
    11:00 -1°C° 0 mm 4 m/s 748 mmHg 54%
    12:00 -1°C° 0 mm 4 m/s 748 mmHg 51%
    13:00 0°C° 0 mm 4 m/s 748 mmHg 47%
    14:00 0°C° 0 mm 3 m/s 748 mmHg 50%
    15:00 -1°C° 0 mm 3 m/s 748 mmHg 54%
    16:00 -1°C° 0 mm 2 m/s 748 mmHg 57%
    17:00 -2°C° 0 mm 2 m/s 748 mmHg 60%
    18:00 -3°C° 0 mm 2 m/s 749 mmHg 63%
    19:00 -3°C° 0 mm 2 m/s 749 mmHg 66%
    20:00 -2°C° 0 mm 1 m/s 749 mmHg 66%
    21:00 -2°C° 0 mm 1 m/s 749 mmHg 67%
    22:00 -2°C° 0 mm 1 m/s 749 mmHg 67%
    23:00 -2°C° 0 mm 1 m/s 749 mmHg 67%

    22 Ianuarie, Marţi

    Timp Temperatura Precipitaţii Vânt Presiune Umiditate
    00:00 -3°C° 0 mm 0 m/s 749 mmHg 67%
    01:00 -3°C° 0 mm 0 m/s 749 mmHg 67%
    02:00 -3°C° 0 mm 0 m/s 748 mmHg 68%
    03:00 -3°C° 0 mm 0 m/s 748 mmHg 69%
    04:00 -3°C° 0 mm 0 m/s 747 mmHg 70%
    05:00 -3°C° 0 mm 1 m/s 747 mmHg 72%
    06:00 -3°C° 0 mm 1 m/s 746 mmHg 74%
    07:00 -3°C° 0 mm 1 m/s 746 mmHg 76%
    08:00 -4°C° 0 mm 2 m/s 745 mmHg 73%
    09:00 -3°C° 0 mm 2 m/s 745 mmHg 69%
    10:00 -2°C° 0 mm 2 m/s 745 mmHg 66%
    11:00 -2°C° 0 mm 3 m/s 744 mmHg 62%
    12:00 -1°C° 0 mm 3 m/s 743 mmHg 59%
    13:00 -1°C° 0 mm 3 m/s 741 mmHg 55%
    14:00 -1°C° 0 mm 3 m/s 741 mmHg 57%
    15:00 -1°C° 0 mm 3 m/s 740 mmHg 59%
    16:00 -2°C° 0 mm 2 m/s 739 mmHg 61%
    17:00 -2°C° 0 mm 3 m/s 738 mmHg 64%
    18:00 -2°C° 0 mm 3 m/s 738 mmHg 67%
    19:00 -4°C° 0 mm 3 m/s 737 mmHg 70%
    20:00 -4°C° 0 mm 3 m/s 736 mmHg 73%
    21:00 -4°C° 0 mm 3 m/s 736 mmHg 77%
    22:00 -4°C° 0 mm 3 m/s 735 mmHg 81%
    23:00 -4°C° 0.1 mm 3 m/s 734 mmHg 84%

    23 Ianuarie, Miercuri

    Timp Temperatura Precipitaţii Vânt Presiune Umiditate
    00:00 -3°C° 0.1 mm 2 m/s 733 mmHg 88%
    01:00 -3°C° 0.1 mm 2 m/s 732 mmHg 91%
    02:00 -3°C° 0.1 mm 2 m/s 732 mmHg 91%
    03:00 -2°C° 0.1 mm 2 m/s 731 mmHg 92%
    04:00 -2°C° 0.1 mm 2 m/s 730 mmHg 93%
    05:00 0°C° 0 mm 1 m/s 730 mmHg 93%
    06:00 0°C° 0 mm 1 m/s 729 mmHg 93%
    07:00 0°C° 0 mm 1 m/s 729 mmHg 93%
    08:00 -1°C° 0.1 mm 0 m/s 728 mmHg 91%
    09:00 -1°C° 0.1 mm 0 m/s 728 mmHg 89%
    10:00 -1°C° 0.1 mm 0 m/s 727 mmHg 86%
    11:00 0°C° 0.5 mm 1 m/s 726 mmHg 87%
    12:00 0°C° 0.5 mm 1 m/s 725 mmHg 88%
    13:00 -1°C° 0.5 mm 2 m/s 724 mmHg 90%
    14:00 -2°C° 0.7 mm 2 m/s 724 mmHg 91%
    15:00 -2°C° 0.7 mm 3 m/s 723 mmHg 93%
    16:00 -2°C° 0.7 mm 3 m/s 723 mmHg 95%
    17:00 -2°C° 0.5 mm 3 m/s 722 mmHg 94%
    18:00 -3°C° 0.5 mm 4 m/s 722 mmHg 94%
    19:00 -3°C° 0.5 mm 4 m/s 721 mmHg 94%
    20:00 -3°C° 0.7 mm 4 m/s 721 mmHg 94%
    21:00 -3°C° 0.7 mm 4 m/s 721 mmHg 94%
    22:00 -4°C° 0.7 mm 4 m/s 720 mmHg 94%
    23:00 -4°C° 0.5 mm 5 m/s 720 mmHg 93%
    Arată mai mult